owner,sensor,date,latitude,longitude,vertical_datum,wind_speed,wind_to_direction,wind_speed_of_gust,qcFlag 
LUMCON,ioos:station:LUMCON:103:1,2005-01-01T10:00:00Z,30.1889,-90.1683,1.0,4.1,120.0,4.1,'11111222,11111222,11111222' 
LUMCON,ioos:station:LUMCON:103:1,2005-01-03T09:00:00Z,30.1889,-90.1683,1.0,2.6,110.0,3.1,'11111222,11111222,11111222' 
LUMCON,ioos:station:LUMCON:103:1,2005-01-03T10:00:00Z,30.1889,-90.1683,1.0,2.6,110.0,3.1,'11111222,11111222,11111222' 
LUMCON,ioos:station:LUMCON:103:1,2005-01-04T20:00:00Z,30.1889,-90.1683,1.0,5.7,90.0,6.7,'11111222,11111222,11111222' 
LUMCON,ioos:station:LUMCON:103:1,2005-01-04T21:00:00Z,30.1889,-90.1683,1.0,5.7,90.0,6.2,'11111222,11111222,11111222' 
LUMCON,ioos:station:LUMCON:103:1,2005-01-04T22:00:00Z,30.1889,-90.1683,1.0,7.2,100.0,7.7,'11111222,11111222,11111222' 
LUMCON,ioos:station:LUMCON:103:1,2005-01-05T01:00:00Z,30.1889,-90.1683,1.0,7.2,100.0,7.7,'11111222,11111222,11111222' 
LUMCON,ioos:station:LUMCON:103:1,2005-01-05T02:00:00Z,30.1889,-90.1683,1.0,3.6,70.0,4.1,'11111222,11111222,11111222' 
LUMCON,ioos:station:LUMCON:103:1,2005-01-05T08:00:00Z,30.1889,-90.1683,1.0,2.6,60.0,3.1,'11111222,11111222,11111222' 
LUMCON,ioos:station:LUMCON:103:1,2005-01-05T18:00:00Z,30.1889,-90.1683,1.0,2.6,110.0,3.6,'11111222,11111222,11111222' 
LUMCON,ioos:station:LUMCON:103:1,2005-01-05T19:00:00Z,30.1889,-90.1683,1.0,6.2,120.0,6.2,'11111222,11111222,11111222' 
LUMCON,ioos:station:LUMCON:103:1,2005-01-05T20:00:00Z,30.1889,-90.1683,1.0,4.1,150.0,5.1,'11111222,11111222,11111222' 
LUMCON,ioos:station:LUMCON:103:1,2005-01-05T21:00:00Z,30.1889,-90.1683,1.0,4.6,150.0,5.7,'11111222,11111222,11111222' 
LUMCON,ioos:station:LUMCON:103:1,2005-01-05T22:00:00Z,30.1889,-90.1683,1.0,5.7,170.0,6.2,'11111222,11111222,11111222' 
LUMCON,ioos:station:LUMCON:103:1,2005-01-05T23:00:00Z,30.1889,-90.1683,1.0,4.6,170.0,5.1,'11111222,11111222,11111222' 
LUMCON,ioos:station:LUMCON:103:1,2005-01-06T00:00:00Z,30.1889,-90.1683,1.0,7.2,170.0,7.7,'11111222,11111222,11111222' 
LUMCON,ioos:station:LUMCON:103:1,2005-01-06T01:00:00Z,30.1889,-90.1683,1.0,5.7,160.0,6.2,'11111222,11111222,11111222' 
LUMCON,ioos:station:LUMCON:103:1,2005-01-06T02:00:00Z,30.1889,-90.1683,1.0,6.7,150.0,7.2,'11111222,11111222,11111222' 
LUMCON,ioos:station:LUMCON:103:1,2005-01-06T03:00:00Z,30.1889,-90.1683,1.0,6.7,160.0,7.2,'11111222,11111222,11111222' 
LUMCON,ioos:station:LUMCON:103:1,2005-01-06T04:00:00Z,30.1889,-90.1683,1.0,5.7,160.0,6.7,'11111222,11111222,11111222' 
LUMCON,ioos:station:LUMCON:103:1,2005-01-06T05:00:00Z,30.1889,-90.1683,1.0,3.6,190.0,4.1,'11111222,11111222,11111222' 
LUMCON,ioos:station:LUMCON:103:1,2005-01-06T06:00:00Z,30.1889,-90.1683,1.0,4.1,180.0,4.1,'11111222,11111222,11111222' 
LUMCON,ioos:station:LUMCON:103:1,2005-01-06T07:00:00Z,30.1889,-90.1683,1.0,5.7,170.0,6.2,'11111222,11111222,11111222' 
LUMCON,ioos:station:LUMCON:103:1,2005-01-06T09:00:00Z,30.1889,-90.1683,1.0,5.1,170.0,5.1,'11111222,11111222,11111222' 
LUMCON,ioos:station:LUMCON:103:1,2005-01-06T10:00:00Z,30.1889,-90.1683,1.0,5.1,170.0,6.2,'11111222,11111222,11111222' 
LUMCON,ioos:station:LUMCON:103:1,2005-01-06T11:00:00Z,30.1889,-90.1683,1.0,4.6,170.0,5.1,'11111222,11111222,11111222' 
LUMCON,ioos:station:LUMCON:103:1,2005-01-06T12:00:00Z,30.1889,-90.1683,1.0,8.2,290.0,11.3,'11111222,11111222,11111222' 
LUMCON,ioos:station:LUMCON:103:1,2005-01-06T13:00:00Z,30.1889,-90.1683,1.0,6.2,330.0,8.2,'11111222,11111222,11111222' 
LUMCON,ioos:station:LUMCON:103:1,2005-01-06T14:00:00Z,30.1889,-90.1683,1.0,4.6,320.0,6.2,'11111222,11111222,11111222' 
LUMCON,ioos:station:LUMCON:103:1,2005-01-06T15:00:00Z,30.1889,-90.1683,1.0,5.1,350.0,6.7,'11111222,11111222,11111222' 
LUMCON,ioos:station:LUMCON:103:1,2005-01-06T16:00:00Z,30.1889,-90.1683,1.0,2.6,340.0,3.1,'11111222,11111222,11111222' 
LUMCON,ioos:station:LUMCON:103:1,2005-01-06T17:00:00Z,30.1889,-90.1683,1.0,3.1,10.0,4.1,'11111222,11111222,11111222' 
LUMCON,ioos:station:LUMCON:103:1,2005-01-06T18:00:00Z,30.1889,-90.1683,1.0,3.6,340.0,4.6,'11111222,11111222,11111222' 
LUMCON,ioos:station:LUMCON:103:1,2005-01-06T21:00:00Z,30.1889,-90.1683,1.0,3.1,0.0,4.6,'11111222,11111222,11111222' 
LUMCON,ioos:station:LUMCON:103:1,2005-01-06T22:00:00Z,30.1889,-90.1683,1.0,3.1,340.0,3.6,'11111222,11111222,11111222' 
LUMCON,ioos:station:LUMCON:103:1,2005-01-06T23:00:00Z,30.1889,-90.1683,1.0,2.6,340.0,3.1,'11111222,11111222,11111222' 
LUMCON,ioos:station:LUMCON:103:1,2005-01-07T00:00:00Z,30.1889,-90.1683,1.0,3.6,0.0,4.6,'11111222,11111222,11111222' 
LUMCON,ioos:station:LUMCON:103:1,2005-01-07T01:00:00Z,30.1889,-90.1683,1.0,3.1,340.0,4.1,'11111222,11111222,11111222' 
LUMCON,ioos:station:LUMCON:103:1,2005-01-07T02:00:00Z,30.1889,-90.1683,1.0,3.6,10.0,4.1,'11111222,11111222,11111222' 
LUMCON,ioos:station:LUMCON:103:1,2005-01-07T03:00:00Z,30.1889,-90.1683,1.0,3.6,10.0,4.6,'11111222,11111222,11111222' 
LUMCON,ioos:station:LUMCON:103:1,2005-01-07T04:00:00Z,30.1889,-90.1683,1.0,4.1,30.0,4.6,'11111222,11111222,11111222' 
LUMCON,ioos:station:LUMCON:103:1,2005-01-07T05:00:00Z,30.1889,-90.1683,1.0,4.6,30.0,5.1,'11111222,11111222,11111222' 
LUMCON,ioos:station:LUMCON:103:1,2005-01-07T06:00:00Z,30.1889,-90.1683,1.0,4.1,30.0,4.6,'11111222,11111222,11111222' 
LUMCON,ioos:station:LUMCON:103:1,2005-01-07T07:00:00Z,30.1889,-90.1683,1.0,3.1,30.0,4.1,'11111222,11111222,11111222' 
LUMCON,ioos:station:LUMCON:103:1,2005-01-07T08:00:00Z,30.1889,-90.1683,1.0,4.6,40.0,5.1,'11111222,11111222,11111222' 
LUMCON,ioos:station:LUMCON:103:1,2005-01-07T09:00:00Z,30.1889,-90.1683,1.0,4.1,40.0,5.1,'11111222,11111222,11111222' 
LUMCON,ioos:station:LUMCON:103:1,2005-01-07T10:00:00Z,30.1889,-90.1683,1.0,4.6,80.0,5.7,'11111222,11111222,11111222' 
LUMCON,ioos:station:LUMCON:103:1,2005-01-07T11:00:00Z,30.1889,-90.1683,1.0,5.1,70.0,5.7,'11111222,11111222,11111222' 
LUMCON,ioos:station:LUMCON:103:1,2005-01-07T12:00:00Z,30.1889,-90.1683,1.0,5.1,70.0,5.7,'11111222,11111222,11111222' 
LUMCON,ioos:station:LUMCON:103:1,2005-01-07T13:00:00Z,30.1889,-90.1683,1.0,5.1,90.0,6.2,'11111222,11111222,11111222' 
LUMCON,ioos:station:LUMCON:103:1,2005-01-07T14:00:00Z,30.1889,-90.1683,1.0,5.1,110.0,6.7,'11111222,11111222,11111222' 
LUMCON,ioos:station:LUMCON:103:1,2005-01-07T18:00:00Z,30.1889,-90.1683,1.0,3.6,100.0,4.1,'11111222,11111222,11111222' 
LUMCON,ioos:station:LUMCON:103:1,2005-01-07T19:00:00Z,30.1889,-90.1683,1.0,5.1,130.0,6.2,'11111222,11111222,11111222' 
LUMCON,ioos:station:LUMCON:103:1,2005-01-07T20:00:00Z,30.1889,-90.1683,1.0,6.2,150.0,6.7,'11111222,11111222,11111222' 
LUMCON,ioos:station:LUMCON:103:1,2005-01-07T21:00:00Z,30.1889,-90.1683,1.0,7.7,170.0,8.8,'11111222,11111222,11111222' 
LUMCON,ioos:station:LUMCON:103:1,2005-01-07T22:00:00Z,30.1889,-90.1683,1.0,8.8,160.0,9.8,'11111222,11111222,11111222' 
LUMCON,ioos:station:LUMCON:103:1,2005-01-07T23:00:00Z,30.1889,-90.1683,1.0,5.1,190.0,6.2,'11111222,11111222,11111222' 
LUMCON,ioos:station:LUMCON:103:1,2005-01-08T00:00:00Z,30.1889,-90.1683,1.0,7.2,160.0,8.2,'11111222,11111222,11111222' 
LUMCON,ioos:station:LUMCON:103:1,2005-01-08T01:00:00Z,30.1889,-90.1683,1.0,6.2,170.0,7.2,'11111222,11111222,11111222' 
LUMCON,ioos:station:LUMCON:103:1,2005-01-08T02:00:00Z,30.1889,-90.1683,1.0,7.2,170.0,8.2,'11111222,11111222,11111222' 
LUMCON,ioos:station:LUMCON:103:1,2005-01-08T03:00:00Z,30.1889,-90.1683,1.0,6.2,170.0,6.7,'11111222,11111222,11111222' 
LUMCON,ioos:station:LUMCON:103:1,2005-01-08T06:00:00Z,30.1889,-90.1683,1.0,5.1,330.0,6.7,'11111222,11111222,11111222' 
LUMCON,ioos:station:LUMCON:103:1,2005-01-08T07:00:00Z,30.1889,-90.1683,1.0,3.1,320.0,4.1,'11111222,11111222,11111222' 
LUMCON,ioos:station:LUMCON:103:1,2005-01-08T08:00:00Z,30.1889,-90.1683,1.0,3.6,320.0,4.6,'11111222,11111222,11111222' 
LUMCON,ioos:station:LUMCON:103:1,2005-01-08T09:00:00Z,30.1889,-90.1683,1.0,3.1,310.0,3.6,'11111222,11111222,11111222' 
LUMCON,ioos:station:LUMCON:103:1,2005-01-08T10:00:00Z,30.1889,-90.1683,1.0,3.1,320.0,4.1,'11111222,11111222,11111222' 
LUMCON,ioos:station:LUMCON:103:1,2005-01-08T11:00:00Z,30.1889,-90.1683,1.0,4.1,330.0,5.7,'11111222,11111222,11111222' 
LUMCON,ioos:station:LUMCON:103:1,2005-01-08T12:00:00Z,30.1889,-90.1683,1.0,4.1,320.0,5.1,'11111222,11111222,11111222' 
LUMCON,ioos:station:LUMCON:103:1,2005-01-08T13:00:00Z,30.1889,-90.1683,1.0,3.6,340.0,5.1,'11111222,11111222,11111222' 
LUMCON,ioos:station:LUMCON:103:1,2005-01-08T14:00:00Z,30.1889,-90.1683,1.0,5.7,340.0,7.2,'11111222,11111222,11111222' 
LUMCON,ioos:station:LUMCON:103:1,2005-01-08T15:00:00Z,30.1889,-90.1683,1.0,4.6,330.0,6.2,'11111222,11111222,11111222' 
LUMCON,ioos:station:LUMCON:103:1,2005-01-08T16:00:00Z,30.1889,-90.1683,1.0,5.1,350.0,6.2,'11111222,11111222,11111222' 
LUMCON,ioos:station:LUMCON:103:1,2005-01-08T17:00:00Z,30.1889,-90.1683,1.0,4.6,350.0,5.7,'11111222,11111222,11111222' 
LUMCON,ioos:station:LUMCON:103:1,2005-01-08T18:00:00Z,30.1889,-90.1683,1.0,4.6,360.0,5.7,'11111222,11144222,11111222' 
LUMCON,ioos:station:LUMCON:103:1,2005-01-08T19:00:00Z,30.1889,-90.1683,1.0,4.1,350.0,5.1,'11111222,11111222,11111222' 
LUMCON,ioos:station:LUMCON:103:1,2005-01-08T20:00:00Z,30.1889,-90.1683,1.0,3.6,10.0,5.1,'11111222,11111222,11111222' 
LUMCON,ioos:station:LUMCON:103:1,2005-01-08T21:00:00Z,30.1889,-90.1683,1.0,3.1,20.0,4.6,'11111222,11111222,11111222' 
LUMCON,ioos:station:LUMCON:103:1,2005-01-08T22:00:00Z,30.1889,-90.1683,1.0,4.1,350.0,5.7,'11111222,11111222,11111222' 
LUMCON,ioos:station:LUMCON:103:1,2005-01-08T23:00:00Z,30.1889,-90.1683,1.0,3.1,20.0,3.6,'11111222,11111222,11111222' 
LUMCON,ioos:station:LUMCON:103:1,2005-01-09T00:00:00Z,30.1889,-90.1683,1.0,3.6,50.0,4.1,'11111222,11111222,11111222' 
LUMCON,ioos:station:LUMCON:103:1,2005-01-09T01:00:00Z,30.1889,-90.1683,1.0,4.6,30.0,5.7,'11111222,11111222,11111222' 
LUMCON,ioos:station:LUMCON:103:1,2005-01-09T02:00:00Z,30.1889,-90.1683,1.0,5.7,40.0,6.7,'11111222,11111222,11111222' 
LUMCON,ioos:station:LUMCON:103:1,2005-01-09T03:00:00Z,30.1889,-90.1683,1.0,6.7,30.0,8.2,'11111222,11111222,11111222' 
LUMCON,ioos:station:LUMCON:103:1,2005-01-09T04:00:00Z,30.1889,-90.1683,1.0,4.6,20.0,6.2,'11111222,11111222,11111222' 
LUMCON,ioos:station:LUMCON:103:1,2005-01-09T05:00:00Z,30.1889,-90.1683,1.0,4.1,20.0,5.1,'11111222,11111222,11111222' 
LUMCON,ioos:station:LUMCON:103:1,2005-01-09T06:00:00Z,30.1889,-90.1683,1.0,6.2,40.0,7.2,'11111222,11111222,11111222' 
LUMCON,ioos:station:LUMCON:103:1,2005-01-09T07:00:00Z,30.1889,-90.1683,1.0,4.1,10.0,5.1,'11111222,11111222,11111222' 
LUMCON,ioos:station:LUMCON:103:1,2005-01-09T08:00:00Z,30.1889,-90.1683,1.0,5.1,60.0,5.7,'11111222,11111222,11111222' 
LUMCON,ioos:station:LUMCON:103:1,2005-01-09T09:00:00Z,30.1889,-90.1683,1.0,4.6,80.0,5.7,'11111222,11111222,11111222' 
LUMCON,ioos:station:LUMCON:103:1,2005-01-09T10:00:00Z,30.1889,-90.1683,1.0,2.6,90.0,3.6,'11111222,11111222,11111222' 
LUMCON,ioos:station:LUMCON:103:1,2005-01-09T11:00:00Z,30.1889,-90.1683,1.0,0.5,80.0,1.0,'11111222,11111222,11111222' 
LUMCON,ioos:station:LUMCON:103:1,2005-01-09T12:00:00Z,30.1889,-90.1683,1.0,3.1,360.0,3.6,'11111222,11144222,11111222' 
LUMCON,ioos:station:LUMCON:103:1,2005-01-09T13:00:00Z,30.1889,-90.1683,1.0,3.1,30.0,4.1,'11111222,11111222,11111222' 
LUMCON,ioos:station:LUMCON:103:1,2005-01-09T14:00:00Z,30.1889,-90.1683,1.0,3.1,50.0,4.1,'11111222,11111222,11111222' 
LUMCON,ioos:station:LUMCON:103:1,2005-01-09T15:00:00Z,30.1889,-90.1683,1.0,3.1,50.0,3.6,'11111222,11111222,11111222' 
LUMCON,ioos:station:LUMCON:103:1,2005-01-09T16:00:00Z,30.1889,-90.1683,1.0,3.1,30.0,3.6,'11111222,11111222,11111222' 
LUMCON,ioos:station:LUMCON:103:1,2005-01-09T17:00:00Z,30.1889,-90.1683,1.0,1.5,30.0,2.1,'11111222,11111222,11111222' 
LUMCON,ioos:station:LUMCON:103:1,2005-01-09T18:00:00Z,30.1889,-90.1683,1.0,1.0,20.0,1.5,'11111222,11111222,11111222' 
LUMCON,ioos:station:LUMCON:103:1,2005-01-09T19:00:00Z,30.1889,-90.1683,1.0,0.0,10.0,1.0,'11111222,11111222,11111222' 
LUMCON,ioos:station:LUMCON:103:1,2005-01-09T20:00:00Z,30.1889,-90.1683,1.0,2.1,320.0,2.6,'11111222,11111222,11111222' 
LUMCON,ioos:station:LUMCON:103:1,2005-01-09T21:00:00Z,30.1889,-90.1683,1.0,1.5,340.0,2.6,'11111222,11111222,11111222' 
LUMCON,ioos:station:LUMCON:103:1,2005-01-09T22:00:00Z,30.1889,-90.1683,1.0,1.5,330.0,2.1,'11111222,11111222,11111222' 
LUMCON,ioos:station:LUMCON:103:1,2005-01-09T23:00:00Z,30.1889,-90.1683,1.0,3.1,150.0,3.6,'11111222,11111222,11111222' 
LUMCON,ioos:station:LUMCON:103:1,2005-01-10T00:00:00Z,30.1889,-90.1683,1.0,1.0,130.0,2.1,'11111222,11111222,11111222' 
LUMCON,ioos:station:LUMCON:103:1,2005-01-10T01:00:00Z,30.1889,-90.1683,1.0,1.0,50.0,1.5,'11111222,11111222,11111222' 
LUMCON,ioos:station:LUMCON:103:1,2005-01-10T02:00:00Z,30.1889,-90.1683,1.0,1.5,90.0,2.1,'11111222,11111222,11111222' 
LUMCON,ioos:station:LUMCON:103:1,2005-01-10T03:00:00Z,30.1889,-90.1683,1.0,2.1,110.0,2.6,'11111222,11111222,11111222' 
LUMCON,ioos:station:LUMCON:103:1,2005-01-10T04:00:00Z,30.1889,-90.1683,1.0,3.6,110.0,4.1,'11111222,11111222,11111222' 
LUMCON,ioos:station:LUMCON:103:1,2005-01-10T05:00:00Z,30.1889,-90.1683,1.0,2.6,90.0,3.1,'11111222,11111222,11111222' 
LUMCON,ioos:station:LUMCON:103:1,2005-01-10T06:00:00Z,30.1889,-90.1683,1.0,2.6,80.0,3.6,'11111222,11111222,11111222' 
LUMCON,ioos:station:LUMCON:103:1,2005-01-10T07:00:00Z,30.1889,-90.1683,1.0,3.1,60.0,3.6,'11111222,11111222,11111222' 
LUMCON,ioos:station:LUMCON:103:1,2005-01-10T08:00:00Z,30.1889,-90.1683,1.0,2.6,20.0,3.1,'11111222,11111222,11111222' 
LUMCON,ioos:station:LUMCON:103:1,2005-01-10T09:00:00Z,30.1889,-90.1683,1.0,2.1,20.0,2.6,'11111222,11111222,11111222' 
LUMCON,ioos:station:LUMCON:103:1,2005-01-10T10:00:00Z,30.1889,-90.1683,1.0,2.1,70.0,2.6,'11111222,11111222,11111222' 
LUMCON,ioos:station:LUMCON:103:1,2005-01-10T11:00:00Z,30.1889,-90.1683,1.0,2.1,60.0,2.6,'11111222,11111222,11111222' 
LUMCON,ioos:station:LUMCON:103:1,2005-01-10T12:00:00Z,30.1889,-90.1683,1.0,1.5,70.0,2.1,'11111222,11111222,11111222' 
LUMCON,ioos:station:LUMCON:103:1,2005-01-10T13:00:00Z,30.1889,-90.1683,1.0,1.5,60.0,2.1,'11111222,11111222,11111222' 
LUMCON,ioos:station:LUMCON:103:1,2005-01-10T14:00:00Z,30.1889,-90.1683,1.0,2.1,90.0,2.6,'11111222,11111222,11111222' 
LUMCON,ioos:station:LUMCON:103:1,2005-01-10T15:00:00Z,30.1889,-90.1683,1.0,2.1,100.0,2.6,'11111222,11111222,11111222' 
LUMCON,ioos:station:LUMCON:103:1,2005-01-10T16:00:00Z,30.1889,-90.1683,1.0,2.1,60.0,2.6,'11111222,11111222,11111222' 
LUMCON,ioos:station:LUMCON:103:1,2005-01-10T17:00:00Z,30.1889,-90.1683,1.0,2.1,80.0,2.6,'11111222,11111222,11111222' 
LUMCON,ioos:station:LUMCON:103:1,2005-01-10T18:00:00Z,30.1889,-90.1683,1.0,1.5,50.0,2.1,'11111222,11111222,11111222' 
LUMCON,ioos:station:LUMCON:103:1,2005-01-10T19:00:00Z,30.1889,-90.1683,1.0,0.5,80.0,1.0,'11111222,11111222,11111222' 
LUMCON,ioos:station:LUMCON:103:1,2005-01-11T00:00:00Z,30.1889,-90.1683,1.0,2.1,10.0,2.1,'11111222,11111222,11111222' 
LUMCON,ioos:station:LUMCON:103:1,2005-01-11T01:00:00Z,30.1889,-90.1683,1.0,3.6,100.0,4.1,'11111222,11111222,11111222' 
LUMCON,ioos:station:LUMCON:103:1,2005-01-11T02:00:00Z,30.1889,-90.1683,1.0,6.7,110.0,7.2,'11111222,11111222,11111222' 
LUMCON,ioos:station:LUMCON:103:1,2005-01-11T03:00:00Z,30.1889,-90.1683,1.0,4.1,110.0,5.1,'11111222,11111222,11111222' 
LUMCON,ioos:station:LUMCON:103:1,2005-01-11T04:00:00Z,30.1889,-90.1683,1.0,5.7,130.0,6.2,'11111222,11111222,11111222' 
LUMCON,ioos:station:LUMCON:103:1,2005-01-11T05:00:00Z,30.1889,-90.1683,1.0,4.1,110.0,5.1,'11111222,11111222,11111222' 
LUMCON,ioos:station:LUMCON:103:1,2005-01-11T06:00:00Z,30.1889,-90.1683,1.0,3.1,110.0,4.1,'11111222,11111222,11111222' 
LUMCON,ioos:station:LUMCON:103:1,2005-01-11T08:00:00Z,30.1889,-90.1683,1.0,2.1,50.0,2.6,'11111222,11111222,11111222' 
LUMCON,ioos:station:LUMCON:103:1,2005-01-11T11:00:00Z,30.1889,-90.1683,1.0,2.6,70.0,3.6,'11111222,11111222,11111222' 
LUMCON,ioos:station:LUMCON:103:1,2005-01-11T12:00:00Z,30.1889,-90.1683,1.0,3.6,100.0,4.6,'11111222,11111222,11111222' 
LUMCON,ioos:station:LUMCON:103:1,2005-01-11T13:00:00Z,30.1889,-90.1683,1.0,4.6,100.0,5.1,'11111222,11111222,11111222' 
LUMCON,ioos:station:LUMCON:103:1,2005-01-11T14:00:00Z,30.1889,-90.1683,1.0,2.6,70.0,3.1,'11111222,11111222,11111222' 
LUMCON,ioos:station:LUMCON:103:1,2005-01-11T18:00:00Z,30.1889,-90.1683,1.0,5.1,110.0,6.2,'11111222,11111222,11111222' 
LUMCON,ioos:station:LUMCON:103:1,2005-01-11T19:00:00Z,30.1889,-90.1683,1.0,5.7,100.0,6.2,'11111222,11111222,11111222' 
LUMCON,ioos:station:LUMCON:103:1,2005-01-11T20:00:00Z,30.1889,-90.1683,1.0,6.7,100.0,7.2,'11111222,11111222,11111222' 
LUMCON,ioos:station:LUMCON:103:1,2005-01-11T21:00:00Z,30.1889,-90.1683,1.0,6.2,100.0,6.7,'11111222,11111222,11111222' 
LUMCON,ioos:station:LUMCON:103:1,2005-01-12T00:00:00Z,30.1889,-90.1683,1.0,6.7,150.0,7.2,'11111222,11111222,11111222' 
LUMCON,ioos:station:LUMCON:103:1,2005-01-12T01:00:00Z,30.1889,-90.1683,1.0,5.7,150.0,6.2,'11111222,11111222,11111222' 
LUMCON,ioos:station:LUMCON:103:1,2005-01-12T02:00:00Z,30.1889,-90.1683,1.0,3.6,150.0,4.1,'11111222,11111222,11111222' 
LUMCON,ioos:station:LUMCON:103:1,2005-01-12T03:00:00Z,30.1889,-90.1683,1.0,2.6,130.0,3.6,'11111222,11111222,11111222' 
LUMCON,ioos:station:LUMCON:103:1,2005-01-12T04:00:00Z,30.1889,-90.1683,1.0,2.6,160.0,3.6,'11111222,11111222,11111222' 
LUMCON,ioos:station:LUMCON:103:1,2005-01-12T05:00:00Z,30.1889,-90.1683,1.0,3.6,160.0,3.6,'11111222,11111222,11111222' 
LUMCON,ioos:station:LUMCON:103:1,2005-01-12T06:00:00Z,30.1889,-90.1683,1.0,4.6,160.0,5.1,'11111222,11111222,11111222' 
LUMCON,ioos:station:LUMCON:103:1,2005-01-12T07:00:00Z,30.1889,-90.1683,1.0,4.6,150.0,5.1,'11111222,11111222,11111222' 
LUMCON,ioos:station:LUMCON:103:1,2005-01-12T08:00:00Z,30.1889,-90.1683,1.0,5.7,150.0,6.2,'11111222,11111222,11111222' 
LUMCON,ioos:station:LUMCON:103:1,2005-01-12T09:00:00Z,30.1889,-90.1683,1.0,5.7,140.0,6.2,'11111222,11111222,11111222' 
LUMCON,ioos:station:LUMCON:103:1,2005-01-12T10:00:00Z,30.1889,-90.1683,1.0,6.2,140.0,6.7,'11111222,11111222,11111222' 
LUMCON,ioos:station:LUMCON:103:1,2005-01-12T11:00:00Z,30.1889,-90.1683,1.0,2.6,140.0,3.1,'11111222,11111222,11111222' 
LUMCON,ioos:station:LUMCON:103:1,2005-01-12T12:00:00Z,30.1889,-90.1683,1.0,4.1,130.0,4.6,'11111222,11111222,11111222' 
LUMCON,ioos:station:LUMCON:103:1,2005-01-12T13:00:00Z,30.1889,-90.1683,1.0,6.7,130.0,6.7,'11111222,11111222,11111222' 
LUMCON,ioos:station:LUMCON:103:1,2005-01-12T14:00:00Z,30.1889,-90.1683,1.0,6.2,120.0,6.7,'11111222,11111222,11111222' 
LUMCON,ioos:station:LUMCON:103:1,2005-01-12T15:00:00Z,30.1889,-90.1683,1.0,6.7,120.0,7.2,'11111222,11111222,11111222' 
LUMCON,ioos:station:LUMCON:103:1,2005-01-12T16:00:00Z,30.1889,-90.1683,1.0,5.7,120.0,6.2,'11111222,11111222,11111222' 
LUMCON,ioos:station:LUMCON:103:1,2005-01-12T17:00:00Z,30.1889,-90.1683,1.0,5.7,100.0,6.2,'11111222,11111222,11111222' 
LUMCON,ioos:station:LUMCON:103:1,2005-01-12T18:00:00Z,30.1889,-90.1683,1.0,6.7,110.0,7.7,'11111222,11111222,11111222' 
LUMCON,ioos:station:LUMCON:103:1,2005-01-12T19:00:00Z,30.1889,-90.1683,1.0,8.2,150.0,8.8,'11111222,11111222,11111222' 
LUMCON,ioos:station:LUMCON:103:1,2005-01-12T20:00:00Z,30.1889,-90.1683,1.0,7.2,150.0,8.2,'11111222,11111222,11111222' 
LUMCON,ioos:station:LUMCON:103:1,2005-01-12T21:00:00Z,30.1889,-90.1683,1.0,7.2,160.0,8.2,'11111222,11111222,11111222' 
LUMCON,ioos:station:LUMCON:103:1,2005-01-12T22:00:00Z,30.1889,-90.1683,1.0,6.7,160.0,7.7,'11111222,11111222,11111222' 
LUMCON,ioos:station:LUMCON:103:1,2005-01-12T23:00:00Z,30.1889,-90.1683,1.0,6.2,140.0,6.7,'11111222,11111222,11111222' 
LUMCON,ioos:station:LUMCON:103:1,2005-01-13T00:00:00Z,30.1889,-90.1683,1.0,7.2,140.0,8.2,'11111222,11111222,11111222' 
LUMCON,ioos:station:LUMCON:103:1,2005-01-13T01:00:00Z,30.1889,-90.1683,1.0,7.7,130.0,8.2,'11111222,11111222,11111222' 
LUMCON,ioos:station:LUMCON:103:1,2005-01-13T02:00:00Z,30.1889,-90.1683,1.0,5.1,120.0,5.7,'11111222,11111222,11111222' 
LUMCON,ioos:station:LUMCON:103:1,2005-01-13T03:00:00Z,30.1889,-90.1683,1.0,5.7,120.0,6.2,'11111222,11111222,11111222' 
LUMCON,ioos:station:LUMCON:103:1,2005-01-13T04:00:00Z,30.1889,-90.1683,1.0,3.1,120.0,4.1,'11111222,11111222,11111222' 
LUMCON,ioos:station:LUMCON:103:1,2005-01-13T05:00:00Z,30.1889,-90.1683,1.0,6.2,120.0,7.2,'11111222,11111222,11111222' 
LUMCON,ioos:station:LUMCON:103:1,2005-01-13T06:00:00Z,30.1889,-90.1683,1.0,4.6,130.0,6.2,'11111222,11111222,11111222' 
LUMCON,ioos:station:LUMCON:103:1,2005-01-13T07:00:00Z,30.1889,-90.1683,1.0,3.1,100.0,3.6,'11111222,11111222,11111222' 
LUMCON,ioos:station:LUMCON:103:1,2005-01-13T08:00:00Z,30.1889,-90.1683,1.0,5.1,100.0,5.7,'11111222,11111222,11111222' 
LUMCON,ioos:station:LUMCON:103:1,2005-01-13T09:00:00Z,30.1889,-90.1683,1.0,8.8,120.0,10.3,'11111222,11111222,11111222' 
LUMCON,ioos:station:LUMCON:103:1,2005-01-13T10:00:00Z,30.1889,-90.1683,1.0,8.8,130.0,9.8,'11111222,11111222,11111222' 
LUMCON,ioos:station:LUMCON:103:1,2005-01-13T12:00:00Z,30.1889,-90.1683,1.0,4.1,110.0,4.6,'11111222,11111222,11111222' 
LUMCON,ioos:station:LUMCON:103:1,2005-01-13T13:00:00Z,30.1889,-90.1683,1.0,3.6,110.0,5.1,'11111222,11111222,11111222' 
LUMCON,ioos:station:LUMCON:103:1,2005-01-13T14:00:00Z,30.1889,-90.1683,1.0,11.8,330.0,17.0,'11111222,11111222,11111222' 
LUMCON,ioos:station:LUMCON:103:1,2005-01-13T15:00:00Z,30.1889,-90.1683,1.0,7.2,330.0,10.3,'11111222,11111222,11111222' 
LUMCON,ioos:station:LUMCON:103:1,2005-01-13T16:00:00Z,30.1889,-90.1683,1.0,4.1,340.0,6.2,'11111222,11111222,11111222' 
LUMCON,ioos:station:LUMCON:103:1,2005-01-13T18:00:00Z,30.1889,-90.1683,1.0,2.1,0.0,3.6,'11111222,11111222,11111222' 
LUMCON,ioos:station:LUMCON:103:1,2005-01-13T19:00:00Z,30.1889,-90.1683,1.0,3.6,60.0,4.6,'11111222,11111222,11111222' 
LUMCON,ioos:station:LUMCON:103:1,2005-01-13T20:00:00Z,30.1889,-90.1683,1.0,3.1,100.0,4.1,'11111222,11111222,11111222' 
LUMCON,ioos:station:LUMCON:103:1,2005-01-13T21:00:00Z,30.1889,-90.1683,1.0,0.5,310.0,2.1,'11111222,11111222,11111222' 
LUMCON,ioos:station:LUMCON:103:1,2005-01-13T22:00:00Z,30.1889,-90.1683,1.0,0.5,230.0,1.0,'11111222,11111222,11111222' 
LUMCON,ioos:station:LUMCON:103:1,2005-01-13T23:00:00Z,30.1889,-90.1683,1.0,4.1,60.0,5.7,'11111222,11111222,11111222' 
LUMCON,ioos:station:LUMCON:103:1,2005-01-14T00:00:00Z,30.1889,-90.1683,1.0,1.0,220.0,1.5,'11111222,11111222,11111222' 
LUMCON,ioos:station:LUMCON:103:1,2005-01-14T01:00:00Z,30.1889,-90.1683,1.0,2.1,260.0,3.1,'11111222,11111222,11111222' 
LUMCON,ioos:station:LUMCON:103:1,2005-01-14T02:00:00Z,30.1889,-90.1683,1.0,5.7,310.0,8.2,'11111222,11111222,11111222' 
LUMCON,ioos:station:LUMCON:103:1,2005-01-14T03:00:00Z,30.1889,-90.1683,1.0,7.2,320.0,9.3,'11111222,11111222,11111222' 
LUMCON,ioos:station:LUMCON:103:1,2005-01-14T04:00:00Z,30.1889,-90.1683,1.0,7.7,320.0,9.8,'11111222,11111222,11111222' 
LUMCON,ioos:station:LUMCON:103:1,2005-01-14T05:00:00Z,30.1889,-90.1683,1.0,6.2,320.0,8.2,'11111222,11111222,11111222' 
LUMCON,ioos:station:LUMCON:103:1,2005-01-14T06:00:00Z,30.1889,-90.1683,1.0,7.2,340.0,9.8,'11111222,11111222,11111222' 
LUMCON,ioos:station:LUMCON:103:1,2005-01-14T07:00:00Z,30.1889,-90.1683,1.0,8.2,340.0,11.3,'11111222,11111222,11111222' 
LUMCON,ioos:station:LUMCON:103:1,2005-01-14T08:00:00Z,30.1889,-90.1683,1.0,7.7,340.0,11.3,'11111222,11111222,11111222' 
LUMCON,ioos:station:LUMCON:103:1,2005-01-14T09:00:00Z,30.1889,-90.1683,1.0,7.2,340.0,9.3,'11111222,11111222,11111222' 
LUMCON,ioos:station:LUMCON:103:1,2005-01-14T10:00:00Z,30.1889,-90.1683,1.0,7.7,350.0,10.8,'11111222,11111222,11111222' 
LUMCON,ioos:station:LUMCON:103:1,2005-01-14T11:00:00Z,30.1889,-90.1683,1.0,8.8,360.0,11.8,'11111222,11144222,11111222' 
LUMCON,ioos:station:LUMCON:103:1,2005-01-14T12:00:00Z,30.1889,-90.1683,1.0,10.3,0.0,12.9,'11111222,11111222,11111222' 
LUMCON,ioos:station:LUMCON:103:1,2005-01-14T13:00:00Z,30.1889,-90.1683,1.0,6.7,360.0,9.3,'11111222,11144222,11111222' 
LUMCON,ioos:station:LUMCON:103:1,2005-01-14T14:00:00Z,30.1889,-90.1683,1.0,7.7,0.0,9.8,'11111222,11111222,11111222' 
LUMCON,ioos:station:LUMCON:103:1,2005-01-14T15:00:00Z,30.1889,-90.1683,1.0,9.8,0.0,12.4,'11111222,11111222,11111222' 